Other Public Products
Issued by NWS Charleston, SC

Current Version | Previous Version | Graphics & Text | Print | Product List | Glossary On
Versions: 1 2 3 4 5 6 7 8 9 10 11 12 13 14 15 16 17 18 19 20 21 22 23 24 25 26 27 28 29 30 31 32 33 34 35 36 37 38 39 40 41 42 43 44 45 46 47 48 49 50
000 FPUS82 KCHS 232227 OPUCHS TEST...KCHS/KSAV Gateway Observations...TEST National Weather Service Charleston SC 500 PM EST THU NOV 23 2017 NOTE: "fair" indicates few or no clouds below 12,000 feet with no significant weather and/or obstructions to visibility. SCZ050-WAZ558-NCZ071-TXZ119-213-PAZ071-DCZ001-FLZ074-172-MI076- NYZ176-178-MAZ016-IL014-TNZ027-NJZ106-GAZ044-MD014-232300- ...Gateway Observations for Charleston International... CITY SKY/WX TMP DP RH WIND PRES REMARKS Chas Airport LGT RAIN 46 45 96 NE12 30.00R Seattle PTSUNNY 53 48 83 SW16 29.83R Charlotte PTCLDY 53 28 38 CALM 30.02F Dallas DFW MOSUNNY 69 29 22 SE5 30.04S Dallas Love MOSUNNY 68 28 22 SE7 30.06S Philladelphia PTCLDY 41 18 39 W7 30.05S Wash National PTCLDY 43 21 41 W7 30.08S Baltimore PTCLDY 38 23 55 W5 30.06S WCI 34 Miami CLOUDY 81 71 71 SW7 29.81S Detroit PTCLDY 37 24 59 SW14 29.95F WCI 28 Newark PTCLDY 42 18 37 W6 30.02S Laguardia PTCLDY 43 18 36 W5 30.01S J F K PTCLDY 38 24 57 SW10 30.03S WCI 31 Boston Logan PTCLDY 41 15 35 W7 29.98R Ft. Lauderdale CLOUDY 74 71 91 SE5 29.81R Chicago O`Hare CLEAR 44 25 47 W8 29.91S Chicago Midway CLEAR 46 26 45 SW8 29.91F Houston Bush MOSUNNY 66 34 30 CALM 30.08F Houston Hobby MOSUNNY 64 33 31 N6 30.08S Nashville PTCLDY 53 17 24 CALM 30.04F Atlanta PTCLDY 58 41 53 E6 29.99R $$ GAZ044-118-TXZ119-213-NCZ071-DCZ001-MDZ014-506-PAZ021-071-NJZ106- NYZ176-178-MAZ106-OHZ011-021-055-MIZ076-KYZ091-ILZ014-INZ047- MNZ060-ONZ431-232300- ...Gateway Observations for Savannah International... CITY SKY/WX TMP DP RH WIND PRES REMARKS Savannah Arpt CLOUDY 50 49 96 N12 29.99R FOG Atlanta PTCLDY 58 41 53 E6 29.99R Charlotte PTCLDY 53 28 38 CALM 30.02F Dallas DFW MOSUNNY 69 29 22 SE5 30.04S Houston Bush MOSUNNY 66 34 30 CALM 30.08F Wash National PTCLDY 43 21 41 W7 30.08S Wash Dulles PTCLDY 38 24 57 CALM 30.07S Baltimore PTCLDY 38 23 55 W5 30.06S WCI 34 Philadelphia PTCLDY 41 18 39 W7 30.05S Newark PTCLDY 42 18 37 W6 30.02S Laguardia PTCLDY 43 18 36 W5 30.01S J F K PTCLDY 38 24 57 SW10 30.03S WCI 31 Boston PTCLDY 41 15 35 W7 29.98R Pittsburg CLOUDY 39 20 46 S5 30.00F WCI 36 Akron CLOUDY 38 22 52 S12 29.99F WCI 30 Cleveland CLOUDY 40 25 55 S9 30.01S WCI 34 Cincinnati PTCLDY 42 26 53 S5 30.02S Columbus CLOUDY 38 26 59 S3 30.03S Detroit PTCLDY 37 24 59 SW14 29.95F WCI 28 Chicago O`Hare CLEAR 44 25 47 W8 29.91S Minneapolis PTCLDY 45 26 47 SW7 29.82F Indianapolis CLEAR 44 20 38 S9 29.99S Toronto Canada CLOUDY 37 18 44 W13 29.91S WCI 29 $$

USA.gov is the U.S. government's official web portal to all federal, state and local government web resources and services.